Location: Austin
(30.3000°N, 97.7500°W)
Time: 11:06:22
(UTC-05:00)

Cosmos 44 Rocket - Pass Details

Date: 03 April 2024
Orbit: 639 x 745 km, 65.1° (Epoch: 21 April)

Event Time Altitude Azimuth Distance (km) Brightness Sun altitude
Exits shadow 05:55:44 32° 242° (WSW) 1,245 4.0 -18.0°
Maximum altitude 05:57:46 52° 299° (WNW) 925 3.6 -17.6°
Drops below altitude 10° 06:02:50 10° 16° (NNE) 2,260 6.4 -16.5°
Sets 06:05:17 0° 21° (NNE) 3,183 7.3 -16.0°
